Year,Month,Day,Hour,Minute,Value (Times are PST for windgust in km/hr)
2021,01,04,00,00,29.00
2021,01,04,00,01,24.20
2021,01,04,00,02,24.20
2021,01,04,00,03,24.20
2021,01,04,00,04,24.20
2021,01,04,00,05,24.20
2021,01,04,00,06,24.20
2021,01,04,00,07,24.20
2021,01,04,00,08,20.90
2021,01,04,00,09,22.50
2021,01,04,00,10,17.70
2021,01,04,00,11,24.20
2021,01,04,00,12,20.90
2021,01,04,00,13,16.10
2021,01,04,00,14,14.50
2021,01,04,00,15,22.50
2021,01,04,00,16,17.70
2021,01,04,00,17,16.10
2021,01,04,00,18,16.10
2021,01,04,00,19,14.50
2021,01,04,00,20,12.90
2021,01,04,00,21,14.50
2021,01,04,00,22,22.50
2021,01,04,00,23,20.90
2021,01,04,00,24,20.90
2021,01,04,00,25,20.90
2021,01,04,00,26,22.50
2021,01,04,00,27,17.70
2021,01,04,00,28,24.20
2021,01,04,00,29,32.20
2021,01,04,00,30,24.20
2021,01,04,00,31,32.20
2021,01,04,00,32,25.70
2021,01,04,00,33,20.90
2021,01,04,00,34,20.90
2021,01,04,00,35,24.20
2021,01,04,00,36,19.30
2021,01,04,00,37,22.50
2021,01,04,00,38,20.90
2021,01,04,00,39,17.70
2021,01,04,00,40,22.50
2021,01,04,00,41,29.00
2021,01,04,00,42,29.00
2021,01,04,00,43,22.50
2021,01,04,00,44,30.60
2021,01,04,00,45,33.80
2021,01,04,00,46,16.10
2021,01,04,00,47,24.20
2021,01,04,00,48,19.30
2021,01,04,00,49,25.70
2021,01,04,00,50,20.90
2021,01,04,00,51,30.60
2021,01,04,00,52,20.90
2021,01,04,00,53,17.70
2021,01,04,00,54,24.20
2021,01,04,00,55,32.20
2021,01,04,00,56,22.50
2021,01,04,00,57,30.60
2021,01,04,00,58,20.90
2021,01,04,00,59,43.50
2021,01,04,01,00,25.70
2021,01,04,01,01,24.20
2021,01,04,01,02,19.30
2021,01,04,01,03,20.90
2021,01,04,01,04,14.50
2021,01,04,01,05,11.30
2021,01,04,01,06,19.30
2021,01,04,01,07,29.00
2021,01,04,01,08,19.30
2021,01,04,01,09,20.90
2021,01,04,01,10,20.90
2021,01,04,01,11,17.70
2021,01,04,01,12,20.90
2021,01,04,01,13,25.70
2021,01,04,01,14,20.90
2021,01,04,01,15,17.70
2021,01,04,01,16,16.10
2021,01,04,01,17,17.70
2021,01,04,01,18,17.70
2021,01,04,01,19,19.30
2021,01,04,01,20,19.30
2021,01,04,01,21,24.20
2021,01,04,01,22,27.40
2021,01,04,01,23,14.50
2021,01,04,01,24,17.70
2021,01,04,01,25,24.20
2021,01,04,01,26,27.40
2021,01,04,01,27,20.90
2021,01,04,01,28,27.40
2021,01,04,01,29,16.10
2021,01,04,01,30,12.90
2021,01,04,01,31,17.70
2021,01,04,01,32,30.60
2021,01,04,01,33,29.00
2021,01,04,01,34,25.70
2021,01,04,01,35,30.60
2021,01,04,01,36,32.20
2021,01,04,01,37,24.20
2021,01,04,01,38,22.50
2021,01,04,01,39,20.90
2021,01,04,01,40,32.20
2021,01,04,01,41,29.00
2021,01,04,01,42,27.40
2021,01,04,01,43,27.40
2021,01,04,01,44,22.50
2021,01,04,01,45,29.00
2021,01,04,01,46,17.70
2021,01,04,01,47,17.70
2021,01,04,01,48,30.60
2021,01,04,01,49,30.60
2021,01,04,01,50,12.90
2021,01,04,01,51,22.50
2021,01,04,01,52,24.20
2021,01,04,01,53,19.30
2021,01,04,01,54,20.90
2021,01,04,01,55,16.10
2021,01,04,01,56,12.90
2021,01,04,01,57,29.00
2021,01,04,01,58,24.20
2021,01,04,01,59,27.40
2021,01,04,02,00,30.60
2021,01,04,02,01,37.00
2021,01,04,02,02,29.00
2021,01,04,02,03,20.90
2021,01,04,02,04,38.60
2021,01,04,02,05,22.50
2021,01,04,02,06,25.70
2021,01,04,02,07,29.00
2021,01,04,02,08,32.20
2021,01,04,02,09,29.00
2021,01,04,02,10,17.70
2021,01,04,02,11,33.80
2021,01,04,02,12,25.70
2021,01,04,02,13,25.70
2021,01,04,02,14,35.40
2021,01,04,02,15,19.30
2021,01,04,02,16,25.70
2021,01,04,02,17,33.80
2021,01,04,02,18,27.40
2021,01,04,02,19,19.30
2021,01,04,02,20,35.40
2021,01,04,02,21,29.00
2021,01,04,02,22,12.90
2021,01,04,02,23,19.30
2021,01,04,02,24,20.90
2021,01,04,02,25,30.60
2021,01,04,02,26,22.50
2021,01,04,02,27,29.00
2021,01,04,02,28,22.50
2021,01,04,02,29,22.50
2021,01,04,02,30,20.90
2021,01,04,02,31,17.70
2021,01,04,02,32,11.30
2021,01,04,02,33,8.10
2021,01,04,02,34,11.30
2021,01,04,02,35,19.30
2021,01,04,02,36,17.70
2021,01,04,02,37,17.70
2021,01,04,02,38,24.20
2021,01,04,02,39,25.70
2021,01,04,02,40,19.30
2021,01,04,02,41,41.80
2021,01,04,02,42,25.70
2021,01,04,02,43,19.30
2021,01,04,02,44,24.20
2021,01,04,02,45,25.70
2021,01,04,02,46,19.30
2021,01,04,02,47,19.30
2021,01,04,02,48,25.70
2021,01,04,02,49,20.90
2021,01,04,02,50,17.70
2021,01,04,02,51,12.90
2021,01,04,02,52,27.40
2021,01,04,02,53,30.60
2021,01,04,02,54,27.40
2021,01,04,02,55,22.50
2021,01,04,02,56,19.30
2021,01,04,02,57,19.30
2021,01,04,02,58,19.30
2021,01,04,02,59,17.70
2021,01,04,03,00,19.30
2021,01,04,03,01,22.50
2021,01,04,03,02,27.40
2021,01,04,03,03,16.10
2021,01,04,03,04,16.10
2021,01,04,03,05,22.50
2021,01,04,03,06,27.40
2021,01,04,03,07,35.40
2021,01,04,03,08,14.50
2021,01,04,03,09,19.30
2021,01,04,03,10,20.90
2021,01,04,03,11,22.50
2021,01,04,03,12,20.90
2021,01,04,03,13,32.20
2021,01,04,03,14,19.30
2021,01,04,03,15,17.70
2021,01,04,03,16,27.40
2021,01,04,03,17,24.20
2021,01,04,03,18,17.70
2021,01,04,03,19,24.20
2021,01,04,03,20,19.30
2021,01,04,03,21,32.20
2021,01,04,03,22,29.00
2021,01,04,03,23,14.50
2021,01,04,03,24,14.50
2021,01,04,03,25,24.20
2021,01,04,03,26,22.50
2021,01,04,03,27,29.00
2021,01,04,03,28,32.20
2021,01,04,03,29,30.60
2021,01,04,03,30,22.50
2021,01,04,03,31,30.60
2021,01,04,03,32,19.30
2021,01,04,03,33,25.70
2021,01,04,03,34,24.20
2021,01,04,03,35,14.50
2021,01,04,03,36,24.20
2021,01,04,03,37,27.40
2021,01,04,03,38,22.50
2021,01,04,03,39,20.90
2021,01,04,03,40,16.10
2021,01,04,03,41,19.30
2021,01,04,03,42,27.40
2021,01,04,03,43,24.20
2021,01,04,03,44,24.20
2021,01,04,03,45,29.00
2021,01,04,03,46,20.90
2021,01,04,03,47,33.80
2021,01,04,03,48,27.40
2021,01,04,03,49,16.10
2021,01,04,03,50,25.70
2021,01,04,03,51,17.70
2021,01,04,03,52,16.10
2021,01,04,03,53,27.40
2021,01,04,03,54,16.10
2021,01,04,03,55,29.00
2021,01,04,03,56,16.10
2021,01,04,03,57,16.10
2021,01,04,03,58,20.90
2021,01,04,03,59,17.70
2021,01,04,04,00,19.30
2021,01,04,04,01,27.40
2021,01,04,04,02,37.00
2021,01,04,04,03,30.60
2021,01,04,04,04,30.60
2021,01,04,04,05,32.20
2021,01,04,04,06,37.00
2021,01,04,04,07,20.90
2021,01,04,04,08,22.50
2021,01,04,04,09,22.50
2021,01,04,04,10,20.90
2021,01,04,04,11,32.20
2021,01,04,04,12,17.70
2021,01,04,04,13,24.20
2021,01,04,04,14,19.30
2021,01,04,04,15,22.50
2021,01,04,04,16,19.30
2021,01,04,04,17,22.50
2021,01,04,04,18,22.50
2021,01,04,04,19,22.50
2021,01,04,04,20,24.20
2021,01,04,04,21,19.30
2021,01,04,04,22,19.30
2021,01,04,04,23,37.00
2021,01,04,04,24,30.60
2021,01,04,04,25,27.40
2021,01,04,04,26,19.30
2021,01,04,04,27,17.70
2021,01,04,04,28,14.50
2021,01,04,04,29,25.70
2021,01,04,04,30,20.90
2021,01,04,04,31,12.90
2021,01,04,04,32,8.10
2021,01,04,04,33,16.10
2021,01,04,04,34,27.40
2021,01,04,04,35,17.70
2021,01,04,04,36,29.00
2021,01,04,04,37,27.40
2021,01,04,04,38,17.70
2021,01,04,04,39,20.90
2021,01,04,04,40,11.30
2021,01,04,04,41,19.30
2021,01,04,04,42,17.70
2021,01,04,04,43,19.30
2021,01,04,04,44,22.50
2021,01,04,04,45,20.90
2021,01,04,04,46,25.70
2021,01,04,04,47,12.90
2021,01,04,04,48,17.70
2021,01,04,04,49,14.50
2021,01,04,04,50,14.50
2021,01,04,04,51,24.20
2021,01,04,04,52,27.40
2021,01,04,04,53,16.10
2021,01,04,04,54,19.30
2021,01,04,04,55,25.70
2021,01,04,04,56,16.10
2021,01,04,04,57,12.90
2021,01,04,04,58,24.20
2021,01,04,04,59,19.30
2021,01,04,05,00,33.80
2021,01,04,05,01,27.40
2021,01,04,05,02,12.90
2021,01,04,05,03,11.30
2021,01,04,05,04,9.60
2021,01,04,05,05,14.50
2021,01,04,05,06,25.70
2021,01,04,05,07,20.90
2021,01,04,05,08,14.50
2021,01,04,05,09,27.40
2021,01,04,05,10,22.50
2021,01,04,05,11,19.30
2021,01,04,05,12,29.00
2021,01,04,05,13,17.70
2021,01,04,05,14,25.70
2021,01,04,05,15,24.20
2021,01,04,05,16,12.90
2021,01,04,05,17,20.90
2021,01,04,05,18,19.30
2021,01,04,05,19,22.50
2021,01,04,05,20,24.20
2021,01,04,05,21,17.70
2021,01,04,05,22,14.50
2021,01,04,05,23,9.60
2021,01,04,05,24,9.60
2021,01,04,05,25,1.60
2021,01,04,05,26,1.60
2021,01,04,05,27,1.60
2021,01,04,05,28,1.60
2021,01,04,05,29,1.60
2021,01,04,05,30,1.60
2021,01,04,05,31,1.60
2021,01,04,05,32,1.60
2021,01,04,05,33,1.60
2021,01,04,05,34,1.60
2021,01,04,09,48,1.60
2021,01,04,09,49,3.20
2021,01,04,09,53,3.20
2021,01,04,09,54,4.80
2021,01,04,09,55,4.80
2021,01,04,09,56,4.80
2021,01,04,09,57,3.20
2021,01,04,09,58,3.20
2021,01,04,09,59,3.20
2021,01,04,10,00,1.60
2021,01,04,10,01,1.60
2021,01,04,10,02,1.60
2021,01,04,10,03,3.20
2021,01,04,10,04,6.40
2021,01,04,10,05,3.20
2021,01,04,10,06,3.20
2021,01,04,10,07,4.80
2021,01,04,10,08,4.80
2021,01,04,10,09,3.20
2021,01,04,10,10,3.20
2021,01,04,10,11,3.20
2021,01,04,10,12,3.20
2021,01,04,10,13,4.80
2021,01,04,10,14,1.60
2021,01,04,10,15,3.20
2021,01,04,10,16,4.80
2021,01,04,10,17,1.60
2021,01,04,10,18,1.60
2021,01,04,10,19,1.60
2021,01,04,10,20,1.60
2021,01,04,10,21,3.20
2021,01,04,10,22,3.20
2021,01,04,10,23,1.60
2021,01,04,10,24,3.20
2021,01,04,10,25,4.80
2021,01,04,10,26,3.20
2021,01,04,10,27,3.20
2021,01,04,10,28,4.80
2021,01,04,10,29,3.20
2021,01,04,10,30,3.20
2021,01,04,10,31,3.20
2021,01,04,10,32,1.60
2021,01,04,10,33,1.60
2021,01,04,10,34,1.60
2021,01,04,10,35,1.60
2021,01,04,10,36,3.20
2021,01,04,10,37,3.20
2021,01,04,10,38,4.80
2021,01,04,10,39,4.80
2021,01,04,10,40,1.60
2021,01,04,10,41,1.60
2021,01,04,10,42,1.60
2021,01,04,10,43,1.60
2021,01,04,10,44,3.20
2021,01,04,10,45,3.20
2021,01,04,10,46,1.60
2021,01,04,10,49,1.60
2021,01,04,10,50,3.20
2021,01,04,10,51,3.20
2021,01,04,10,52,3.20
2021,01,04,10,53,4.80
2021,01,04,10,54,6.40
2021,01,04,10,55,6.40
2021,01,04,10,56,6.40
2021,01,04,10,57,6.40
2021,01,04,10,58,6.40
2021,01,04,10,59,3.20
2021,01,04,11,00,3.20
2021,01,04,11,01,3.20
2021,01,04,11,02,3.20
2021,01,04,11,03,1.60
2021,01,04,11,04,1.60
2021,01,04,11,05,1.60
2021,01,04,11,06,3.20
2021,01,04,11,07,3.20
2021,01,04,11,08,1.60
2021,01,04,11,09,1.60
2021,01,04,11,10,3.20
2021,01,04,11,11,4.80
2021,01,04,11,12,3.20
2021,01,04,11,13,3.20
2021,01,04,11,14,3.20
2021,01,04,11,15,3.20
2021,01,04,11,16,4.80
2021,01,04,11,17,4.80
2021,01,04,11,18,4.80
2021,01,04,11,19,1.60
2021,01,04,11,20,1.60
2021,01,04,11,22,1.60
2021,01,04,11,23,3.20
2021,01,04,11,24,3.20
2021,01,04,11,25,4.80
2021,01,04,11,26,3.20
2021,01,04,11,27,4.80
2021,01,04,11,28,6.40
2021,01,04,11,29,4.80
2021,01,04,11,30,4.80
2021,01,04,11,31,6.40
2021,01,04,11,32,4.80
2021,01,04,11,33,4.80
2021,01,04,11,34,4.80
2021,01,04,11,35,4.80
2021,01,04,11,36,4.80
2021,01,04,11,37,4.80
2021,01,04,11,38,3.20
2021,01,04,11,39,3.20
2021,01,04,11,40,4.80
2021,01,04,11,41,6.40
2021,01,04,11,42,6.40
2021,01,04,11,43,6.40
2021,01,04,11,44,4.80
2021,01,04,11,45,3.20
2021,01,04,11,46,3.20
2021,01,04,11,47,3.20
2021,01,04,11,48,3.20
2021,01,04,11,50,3.20
2021,01,04,11,51,3.20
2021,01,04,11,52,4.80
2021,01,04,11,53,3.20
2021,01,04,11,54,3.20
2021,01,04,11,55,3.20
2021,01,04,11,56,3.20
2021,01,04,11,57,3.20
2021,01,04,11,58,3.20
2021,01,04,11,59,3.20
2021,01,04,12,00,3.20
2021,01,04,12,01,1.60
2021,01,04,12,02,3.20
2021,01,04,12,03,6.40
2021,01,04,12,04,6.40
2021,01,04,12,05,6.40
2021,01,04,12,06,8.10
2021,01,04,12,07,8.10
2021,01,04,12,08,6.40
2021,01,04,12,09,9.60
2021,01,04,12,10,8.10
2021,01,04,12,11,9.60
2021,01,04,12,12,9.60
2021,01,04,12,13,12.90
2021,01,04,12,14,9.60
2021,01,04,12,15,8.10
2021,01,04,12,16,8.10
2021,01,04,12,17,8.10
2021,01,04,12,18,8.10
2021,01,04,12,19,11.30
2021,01,04,12,20,8.10
2021,01,04,12,21,6.40
2021,01,04,12,22,3.20
2021,01,04,12,23,4.80
2021,01,04,12,24,11.30
2021,01,04,12,25,8.10
2021,01,04,12,26,4.80
2021,01,04,12,27,9.60
2021,01,04,12,28,8.10
2021,01,04,12,29,8.10
2021,01,04,12,30,8.10
2021,01,04,12,31,6.40
2021,01,04,12,32,8.10
2021,01,04,12,33,14.50
2021,01,04,12,34,14.50
2021,01,04,12,35,12.90
2021,01,04,12,36,12.90
2021,01,04,12,37,11.30
2021,01,04,12,38,4.80
2021,01,04,12,39,4.80
2021,01,04,12,40,6.40
2021,01,04,12,41,11.30
2021,01,04,12,42,6.40
2021,01,04,12,43,8.10
2021,01,04,12,44,11.30
2021,01,04,12,45,11.30
2021,01,04,12,46,11.30
2021,01,04,12,47,12.90
2021,01,04,12,48,11.30
2021,01,04,12,49,6.40
2021,01,04,12,50,9.60
2021,01,04,12,51,8.10
2021,01,04,12,52,8.10
2021,01,04,12,53,12.90
2021,01,04,12,54,11.30
2021,01,04,12,55,8.10
2021,01,04,12,56,4.80
2021,01,04,12,57,8.10
2021,01,04,12,58,4.80
2021,01,04,12,59,8.10
2021,01,04,13,00,6.40
2021,01,04,13,01,6.40
2021,01,04,13,02,9.60
2021,01,04,13,03,12.90
2021,01,04,13,04,14.50
2021,01,04,13,05,14.50
2021,01,04,13,06,11.30
2021,01,04,13,07,9.60
2021,01,04,13,08,11.30
2021,01,04,13,09,11.30
2021,01,04,13,10,8.10
2021,01,04,13,11,8.10
2021,01,04,13,12,14.50
2021,01,04,13,13,11.30
2021,01,04,13,14,12.90
2021,01,04,13,15,11.30
2021,01,04,13,16,9.60
2021,01,04,13,17,11.30
2021,01,04,13,18,9.60
2021,01,04,13,19,11.30
2021,01,04,13,20,6.40
2021,01,04,13,21,6.40
2021,01,04,13,22,8.10
2021,01,04,13,23,9.60
2021,01,04,13,24,12.90
2021,01,04,13,25,12.90
2021,01,04,13,26,12.90
2021,01,04,13,27,12.90
2021,01,04,13,28,14.50
2021,01,04,13,29,12.90
2021,01,04,13,30,8.10
2021,01,04,13,31,14.50
2021,01,04,13,32,14.50
2021,01,04,13,33,12.90
2021,01,04,13,34,9.60
2021,01,04,13,35,8.10
2021,01,04,13,36,12.90
2021,01,04,13,37,9.60
2021,01,04,13,38,4.80
2021,01,04,13,39,9.60
2021,01,04,13,40,6.40
2021,01,04,13,41,8.10
2021,01,04,13,42,8.10
2021,01,04,13,43,11.30
2021,01,04,13,44,12.90
2021,01,04,13,45,6.40
2021,01,04,13,46,6.40
2021,01,04,13,47,12.90
2021,01,04,13,48,14.50
2021,01,04,13,49,9.60
2021,01,04,13,50,14.50
2021,01,04,13,51,14.50
2021,01,04,13,52,17.70
2021,01,04,13,53,12.90
2021,01,04,13,54,12.90
2021,01,04,13,55,8.10
2021,01,04,13,56,8.10
2021,01,04,13,57,14.50
2021,01,04,13,58,12.90
2021,01,04,13,59,11.30
2021,01,04,14,00,11.30
2021,01,04,14,01,12.90
2021,01,04,14,02,12.90
2021,01,04,14,03,12.90
2021,01,04,14,04,11.30
2021,01,04,14,05,12.90
2021,01,04,14,06,12.90
2021,01,04,14,07,12.90
2021,01,04,14,08,12.90
2021,01,04,14,09,9.60
2021,01,04,14,10,11.30
2021,01,04,14,11,11.30
2021,01,04,14,12,12.90
2021,01,04,14,13,14.50
2021,01,04,14,14,12.90
2021,01,04,14,15,8.10
2021,01,04,14,16,12.90
2021,01,04,14,17,14.50
2021,01,04,14,18,11.30
2021,01,04,14,19,12.90
2021,01,04,14,20,14.50
2021,01,04,14,21,9.60
2021,01,04,14,22,11.30
2021,01,04,14,23,12.90
2021,01,04,14,24,14.50
2021,01,04,14,25,16.10
2021,01,04,14,26,12.90
2021,01,04,14,27,14.50
2021,01,04,14,28,11.30
2021,01,04,14,29,8.10
2021,01,04,14,30,9.60
2021,01,04,14,31,12.90
2021,01,04,14,32,8.10
2021,01,04,14,33,16.10
2021,01,04,14,34,17.70
2021,01,04,14,35,16.10
2021,01,04,14,36,12.90
2021,01,04,14,37,19.30
2021,01,04,14,38,19.30
2021,01,04,14,39,16.10
2021,01,04,14,40,19.30
2021,01,04,14,41,14.50
2021,01,04,14,42,20.90
2021,01,04,14,43,16.10
2021,01,04,14,44,16.10
2021,01,04,14,45,9.60
2021,01,04,14,46,11.30
2021,01,04,14,47,9.60
2021,01,04,14,48,14.50
2021,01,04,14,49,16.10
2021,01,04,14,50,14.50
2021,01,04,14,51,12.90
2021,01,04,14,52,8.10
2021,01,04,14,53,11.30
2021,01,04,14,54,11.30
2021,01,04,14,55,12.90
2021,01,04,14,56,11.30
2021,01,04,14,57,8.10
2021,01,04,14,58,4.80
2021,01,04,14,59,9.60
2021,01,04,15,00,11.30
2021,01,04,15,01,8.10
2021,01,04,15,02,4.80
2021,01,04,15,03,6.40
2021,01,04,15,04,8.10
2021,01,04,15,05,6.40
2021,01,04,15,06,11.30
2021,01,04,15,07,8.10
2021,01,04,15,08,6.40
2021,01,04,15,09,6.40
2021,01,04,15,10,11.30
2021,01,04,15,11,6.40
2021,01,04,15,12,4.80
2021,01,04,15,13,4.80
2021,01,04,15,14,3.20
2021,01,04,15,15,3.20
2021,01,04,15,16,1.60
2021,01,04,15,17,4.80
2021,01,04,15,18,8.10
2021,01,04,15,19,4.80
2021,01,04,15,20,6.40
2021,01,04,15,21,6.40
2021,01,04,15,22,6.40
2021,01,04,15,23,8.10
2021,01,04,15,24,8.10
2021,01,04,15,25,4.80
2021,01,04,15,26,6.40
2021,01,04,15,27,6.40
2021,01,04,15,28,6.40
2021,01,04,15,29,8.10
2021,01,04,15,30,4.80
2021,01,04,15,31,6.40
2021,01,04,15,32,4.80
2021,01,04,15,33,6.40
2021,01,04,15,34,6.40
2021,01,04,15,35,8.10
2021,01,04,15,36,6.40
2021,01,04,15,37,4.80
2021,01,04,15,38,4.80
2021,01,04,15,39,3.20
2021,01,04,15,40,3.20
2021,01,04,15,41,4.80
2021,01,04,15,42,3.20
2021,01,04,15,43,1.60
2021,01,04,15,45,3.20
2021,01,04,15,46,3.20
2021,01,04,15,47,1.60
2021,01,04,15,48,1.60
2021,01,04,15,49,1.60
2021,01,04,15,50,1.60
2021,01,04,15,51,3.20
2021,01,04,15,52,3.20
2021,01,04,15,53,4.80
2021,01,04,15,54,3.20
2021,01,04,15,55,3.20
2021,01,04,15,56,3.20
2021,01,04,15,57,3.20
2021,01,04,15,58,4.80
2021,01,04,15,59,6.40
2021,01,04,16,00,4.80
2021,01,04,16,01,3.20
2021,01,04,16,02,4.80
2021,01,04,16,03,4.80
2021,01,04,16,04,4.80
2021,01,04,16,05,3.20
2021,01,04,16,06,3.20
2021,01,04,16,07,1.60
2021,01,04,16,08,1.60
2021,01,04,16,09,3.20
2021,01,04,16,10,1.60
2021,01,04,16,11,4.80
2021,01,04,16,12,4.80
2021,01,04,16,13,1.60
2021,01,04,16,14,3.20
2021,01,04,16,15,3.20
2021,01,04,16,16,1.60
2021,01,04,16,17,3.20
2021,01,04,16,18,3.20
2021,01,04,16,19,4.80
2021,01,04,16,20,3.20
2021,01,04,16,21,3.20
2021,01,04,16,22,3.20
2021,01,04,16,23,1.60
2021,01,04,16,24,3.20
2021,01,04,16,25,3.20
2021,01,04,16,26,3.20
2021,01,04,16,27,3.20
2021,01,04,16,29,1.60
2021,01,04,16,32,1.60
2021,01,04,16,33,1.60
2021,01,04,16,34,1.60
2021,01,04,16,35,1.60
2021,01,04,16,36,1.60
2021,01,04,16,37,1.60
2021,01,04,16,38,1.60
2021,01,04,16,39,1.60
2021,01,04,18,11,3.20
2021,01,04,18,12,3.20
2021,01,04,18,13,3.20
2021,01,04,18,14,3.20
2021,01,04,18,15,3.20
2021,01,04,18,16,1.60
2021,01,04,18,19,1.60
2021,01,04,18,20,3.20
2021,01,04,18,21,3.20
2021,01,04,18,22,1.60
2021,01,04,18,23,1.60
2021,01,04,18,24,3.20
2021,01,04,18,25,1.60
2021,01,04,18,26,1.60
2021,01,04,18,27,1.60
2021,01,04,18,28,1.60
2021,01,04,18,38,1.60
2021,01,04,18,39,3.20
2021,01,04,18,40,1.60
2021,01,04,19,41,3.20
2021,01,04,19,42,3.20
2021,01,04,19,43,3.20
2021,01,04,19,44,3.20
2021,01,04,19,45,3.20
2021,01,04,19,46,1.60
2021,01,04,19,47,4.80
2021,01,04,19,48,1.60
2021,01,04,19,49,1.60
2021,01,04,19,50,1.60
2021,01,04,19,51,3.20
2021,01,04,19,52,3.20
2021,01,04,19,53,1.60
2021,01,04,19,54,1.60
2021,01,04,19,55,1.60
2021,01,04,19,56,1.60
2021,01,04,19,57,1.60
2021,01,04,19,58,3.20
2021,01,04,19,59,1.60
2021,01,04,20,01,3.20
2021,01,04,20,02,3.20
2021,01,04,20,03,3.20
2021,01,04,20,05,3.20
2021,01,04,20,06,1.60
2021,01,04,20,07,1.60
2021,01,04,20,08,1.60
2021,01,04,20,09,1.60
2021,01,04,20,10,1.60
2021,01,04,20,13,1.60
2021,01,04,20,14,1.60
2021,01,04,20,17,1.60
2021,01,04,20,18,4.80
2021,01,04,20,19,4.80
2021,01,04,20,33,3.20
2021,01,04,20,34,3.20
2021,01,04,20,35,1.60
2021,01,04,20,37,4.80
2021,01,04,20,38,4.80
2021,01,04,20,39,3.20
2021,01,04,20,40,3.20
2021,01,04,20,41,3.20
2021,01,04,20,42,3.20
2021,01,04,20,43,3.20
2021,01,04,20,44,4.80
2021,01,04,20,45,3.20
2021,01,04,20,46,1.60
2021,01,04,20,48,3.20
2021,01,04,20,49,3.20
2021,01,04,20,50,1.60
2021,01,04,20,51,3.20
2021,01,04,20,52,4.80
2021,01,04,20,53,4.80
2021,01,04,20,54,4.80
2021,01,04,20,55,3.20
2021,01,04,20,56,3.20
2021,01,04,20,58,3.20
2021,01,04,20,59,3.20
2021,01,04,21,00,1.60
2021,01,04,21,01,1.60
2021,01,04,21,02,3.20
2021,01,04,21,03,3.20
2021,01,04,21,04,3.20
2021,01,04,21,05,1.60
2021,01,04,21,06,1.60
2021,01,04,21,07,1.60
2021,01,04,21,08,1.60
2021,01,04,21,09,1.60
2021,01,04,21,52,3.20
2021,01,04,21,53,3.20
2021,01,04,21,54,1.60
2021,01,04,21,56,1.60
2021,01,04,21,57,1.60
2021,01,04,21,58,1.60
2021,01,04,21,59,3.20
2021,01,04,22,00,3.20
2021,01,04,22,01,3.20
2021,01,04,22,04,3.20
2021,01,04,22,49,3.20
2021,01,04,22,50,3.20
2021,01,04,22,51,1.60
2021,01,04,22,53,1.60
2021,01,04,22,54,3.20
2021,01,04,22,55,3.20
2021,01,04,22,56,1.60
2021,01,04,22,58,1.60
2021,01,04,23,00,1.60
2021,01,04,23,01,1.60
2021,01,04,23,02,1.60
2021,01,04,23,03,3.20
2021,01,04,23,04,1.60
2021,01,04,23,05,3.20
2021,01,04,23,06,4.80
2021,01,04,23,07,3.20
2021,01,04,23,08,3.20
2021,01,04,23,09,3.20
2021,01,04,23,10,3.20
2021,01,04,23,11,3.20
2021,01,04,23,12,3.20
2021,01,04,23,13,3.20
2021,01,04,23,14,4.80
2021,01,04,23,15,3.20
2021,01,04,23,16,1.60
2021,01,04,23,17,3.20
2021,01,04,23,18,3.20
2021,01,04,23,19,3.20
2021,01,04,23,20,4.80
2021,01,04,23,21,4.80
2021,01,04,23,22,3.20
2021,01,04,23,23,3.20
2021,01,04,23,24,1.60
2021,01,04,23,25,1.60
2021,01,04,23,29,3.20
2021,01,04,23,30,3.20
2021,01,04,23,31,3.20
2021,01,04,23,32,4.80
2021,01,04,23,33,4.80
2021,01,04,23,34,3.20
2021,01,04,23,35,1.60
2021,01,04,23,36,3.20
2021,01,04,23,37,3.20
2021,01,04,23,38,3.20
2021,01,04,23,39,3.20
2021,01,04,23,42,3.20
2021,01,04,23,43,3.20
2021,01,04,23,44,3.20
2021,01,04,23,45,1.60
2021,01,04,23,46,1.60
2021,01,04,23,47,1.60
2021,01,04,23,48,3.20
2021,01,04,23,49,4.80
2021,01,04,23,50,3.20
2021,01,04,23,51,3.20
2021,01,04,23,52,3.20
2021,01,04,23,53,3.20
2021,01,04,23,54,4.80
2021,01,04,23,55,6.40
2021,01,04,23,56,6.40
2021,01,04,23,57,4.80
2021,01,04,23,58,1.60
2021,01,04,23,59,3.20
